"Time","Temp","Dewpoint","Humidity","Pressure","Direction","Speed","Gust","Precip","PrecipRate"
"00:04:59","57.9","52.4","82","29.66","331","0.5","4.8","0.00","0.00"
"00:09:56","57.7","52.2","82","29.66","331","0.1","1.2","0.00","0.00"
"00:14:59","57.4","52.2","82.8","29.66","331","0","0","0.00","0.00"
"00:19:58","57.2","52.1","83","29.66","330","0.2","2.4","0.00","0.00"
"00:24:58","56.8","52","83.9","29.66","330","0.5","2.3","0.00","0.00"
"00:29:57","56.5","51.9","84.7","29.67","330","0","0","0.00","0.00"
"00:34:56","56.4","51.9","85","29.67","330","0","0","0.00","0.00"
"00:39:57","56.4","51.9","85","29.67","330","0","0","0.00","0.00"
"00:44:57","56.6","52.1","85","29.67","330","0","0","0.00","0.00"
"00:49:58","56.9","52.3","84.6","29.67","330","0","0","0.00","0.00"
"00:54:58","57","52.2","84","29.67","330","0","0","0.00","0.00"
"00:59:59","56.9","52.1","84","29.68","330","0","0","0.00","0.00"
"01:04:57","56.9","52.1","84","29.68","330","0","0","0.00","0.00"
"01:09:59","56.8","52","84","29.68","330","0","0","0.00","0.00"
"01:14:56","56.7","52.1","84.8","29.68","330","0","0","0.00","0.00"
"01:19:56","56.5","52","85","29.68","330","0","0","0.00","0.00"
"01:24:56","56.3","51.8","85","29.68","330","0","0","0.00","0.00"
"01:29:57","56.1","51.7","85.2","29.68","330","0","0","0.00","0.00"
"01:34:57","55.8","51.7","86","29.68","330","0","0","0.00","0.00"
"01:39:58","55.5","51.5","86.2","29.68","330","0","0","0.00","0.00"
"01:44:58","55.2","51.4","86.9","29.68","330","0","0","0.00","0.00"
"01:49:58","55","51.3","87.3","29.68","330","0","0","0.00","0.00"
"01:54:59","55","51.5","88","29.68","330","0","0","0.00","0.00"
"01:59:59","55.1","51.6","88","29.68","330","0","0","0.00","0.00"
"02:04:57","55.2","51.7","88","29.68","330","0","0","0.00","0.00"
"02:09:59","55.1","51.6","88","29.68","330","0","0","0.00","0.00"
"02:14:56","55","51.5","88","29.68","330","0","0","0.00","0.00"
"02:19:56","54.9","51.4","88","29.68","330","0","0","0.00","0.00"
"02:24:56","54.8","51.3","88","29.68","330","0","0","0.00","0.00"
"02:29:56","54.6","51.1","88","29.68","330","0","0","0.00","0.00"
"02:34:56","54.4","50.9","88","29.68","330","0","0","0.00","0.00"
"02:39:57","54.2","50.7","88","29.68","330","0","0","0.00","0.00"
"02:44:57","54.1","50.6","88","29.68","330","0","0","0.00","0.00"
"02:49:58","53.9","50.5","88.5","29.68","330","0","0","0.00","0.00"
"02:54:58","53.7","50.5","89.1","29.68","330","0","0","0.00","0.00"
"02:59:59","53.6","50.7","90","29.68","330","0","0","0.00","0.00"
"03:04:58","53.4","50.5","90","29.68","330","0","0","0.00","0.00"
"03:09:56","53.2","50.3","90.1","29.68","330","0","0","0.00","0.00"
"03:14:57","53","50.4","91","29.68","330","0","0","0.00","0.00"
"03:19:58","52.9","50.3","91","29.68","330","0","0","0.00","0.00"
"03:24:58","52.8","50.2","91","29.68","330","0","0","0.00","0.00"
"03:29:58","52.8","50.4","91.8","29.68","330","0","0","0.00","0.00"
"03:34:59","52.8","50.5","92","29.68","330","0","0","0.00","0.00"
"03:39:59","52.7","50.3","91.7","29.68","330","0","0","0.00","0.00"
"03:44:56","52.6","50.3","92","29.68","330","0","0","0.00","0.00"
"03:49:56","52.5","50.3","92","29.68","330","0","0","0.00","0.00"
"03:54:58","52.5","50.4","92.6","29.68","330","0","0","0.00","0.00"
"03:59:57","52.4","50.1","92","29.68","330","0","0","0.00","0.00"
"04:04:56","52.3","50","92","29.68","330","0","0","0.00","0.00"
"04:09:57","52.1","49.8","92","29.68","330","0","0","0.00","0.00"
"04:14:59","52","49.7","92.3","29.69","330","0","0","0.00","0.00"
"04:19:56","51.9","49.9","93","29.69","330","0","0","0.00","0.00"
"04:24:59","51.9","49.9","93","29.69","330","0","0","0.00","0.00"
"04:29:57","51.9","49.9","93","29.69","330","0","0","0.00","0.00"
"04:34:57","51.9","49.9","93","29.69","330","0","0","0.00","0.00"
"04:39:58","51.9","50.2","94","29.69","330","0","0","0.00","0.00"
"04:44:58","51.9","50.2","94","29.69","330","0","0","0.00","0.00"
"04:49:58","51.9","50","93.4","29.69","330","0","0","0.00","0.00"
"04:54:59","51.7","49.7","93","29.69","330","0","0","0.00","0.00"
"04:59:59","51.5","49.5","93","29.70","330","0","0","0.00","0.00"
"05:04:57","51.4","49.4","93","29.70","330","0","0","0.00","0.00"
"05:09:59","51.4","49.6","93.8","29.70","330","0","0","0.00","0.00"
"05:14:56","51.4","49.7","94","29.70","330","0","0","0.00","0.00"
"05:19:56","51.3","49.6","94","29.70","330","0","0","0.00","0.00"
"05:24:57","51.2","49.5","94","29.70","330","0","0","0.00","0.00"
"05:29:57","51.1","49.4","94","29.71","330","0","0","0.00","0.00"
"05:34:57","50.9","49.2","94","29.71","330","0","0","0.00","0.00"
"05:39:58","50.9","49.2","94","29.71","330","0","0","0.00","0.00"
"05:44:58","51.1","49.5","94.5","29.71","330","0","0","0.00","0.00"
"05:49:59","51.2","49.8","95","29.71","330","0","0","0.00","0.00"
"05:54:59","51.1","49.5","94.2","29.71","330","0","0","0.00","0.00"
"05:59:56","50.9","49.2","94","29.71","330","0","0","0.00","0.00"
"06:04:58","50.8","49.1","94","29.71","276","0","0","0.00","0.00"
"06:09:57","50.7","49","94","29.71","276","0","0","0.00","0.00"
"06:14:58","50.6","49.1","94.5","29.72","276","0","0","0.00","0.00"
"06:19:58","50.8","49.4","95","29.72","276","0","0","0.00","0.00"
"06:24:58","50.9","49.5","95","29.72","276","0","0","0.00","0.00"
"06:29:58","50.9","49.5","95","29.72","276","0","0","0.00","0.00"
"06:34:58","50.9","49.5","95","29.72","276","0","0","0.00","0.00"
"06:39:58","51.1","49.7","95","29.72","276","0","0","0.00","0.00"
"06:44:58","51.3","49.9","95","29.72","276","0","0","0.00","0.00"
"06:49:58","51.7","50.6","96","29.72","276","0","0","0.00","0.00"
"06:54:58","52.2","51.1","96","29.72","276","0","0","0.00","0.00"
"06:59:58","52.7","51.6","96","29.72","276","0","1.2","0.00","0.00"
"07:04:56","53.5","52.4","95.8","29.71","276","0.8","3.6","0.00","0.00"
"07:09:58","54.4","52.9","94.6","29.71","277","0.4","2.4","0.00","0.00"
"07:14:59","55.2","53.1","92.7","29.71","277","0.4","3.6","0.00","0.00"
"07:19:59","56.5","53.4","89.3","29.71","274","0.6","2.4","0.00","0.00"
"07:24:59","57.6","54","87.5","29.71","268","0.7","3.6","0.00","0.00"
"07:29:58","58.4","54.1","85.4","29.72","269","0.6","2.4","0.00","0.00"
"07:34:56","59.4","54.4","83.8","29.72","267","0.5","3.6","0.00","0.00"
"07:39:56","60.3","54.5","81.4","29.72","267","1.2","4.8","0.00","0.00"
"07:44:56","60.9","55","80.7","29.72","282","1.3","3.6","0.00","0.00"
"07:49:56","61.5","54.9","78.9","29.72","253","2.2","6","0.00","0.00"
"07:54:56","62.1","55","77.5","29.72","259","1.6","4.8","0.00","0.00"
"07:59:57","62.8","55.1","75.9","29.73","303","1.8","6","0.00","0.00"
"08:04:59","63.3","55","74.1","29.73","295","2.8","7.2","0.00","0.00"
"08:09:57","63.9","55.3","73.6","29.73","348","1.2","6.9","0.00","0.00"
"08:14:59","64.4","55.3","72.1","29.73","277","2.1","6","0.00","0.00"
"08:19:59","64.9","55.4","71.3","29.73","252","3.1","7.2","0.00","0.00"
"08:24:59","65.2","55.3","70.2","29.73","322","1.6","5.8","0.00","0.00"
"08:29:59","65.6","55.2","69","29.74","319","2.9","6","0.00","0.00"
"08:34:58","66","54.9","67.3","29.74","302","3.1","6","0.00","0.00"
"08:39:59","66.4","55.4","67.6","29.74","322","2.1","8.4","0.00","0.00"
"08:44:59","66.7","55.3","66.6","29.74","318","1.9","8.1","0.00","0.00"
"08:49:59","67","55.5","66.5","29.74","1","1.4","5.8","0.00","0.00"
"08:54:59","67.3","55.7","66.4","29.74","318","1.8","7.2","0.00","0.00"
"08:59:59","67.5","55.3","65","29.75","355","2.7","6","0.00","0.00"
"09:04:57","67.6","55","64","29.75","15","2.2","4.8","0.00","0.00"
"09:09:59","67.9","54.7","62.9","29.75","247","2.3","8.4","0.00","0.00"
"09:14:56","68.1","54.6","62","29.75","314","2.9","4.8","0.00","0.00"
"09:19:56","68.3","54.9","62.3","29.75","316","3.1","8.4","0.00","0.00"
"09:24:56","68.6","55","61.9","29.75","319","3.3","7.2","0.00","0.00"
"09:29:56","68.9","55.2","61.7","29.75","304","2.7","7.2","0.00","0.00"
"09:34:56","69.2","54.7","60","29.75","297","3.5","8.4","0.00","0.00"
"09:39:57","69.3","54.9","60.3","29.75","296","3","10.8","0.00","0.00"
"09:44:57","69.3","54.6","59.5","29.76","335","2.5","10.8","0.00","0.00"
"09:49:57","69.5","54.2","58.3","29.76","352","2.5","10.4","0.00","0.00"
"09:54:57","69.6","53.9","57.5","29.76","310","4","10.8","0.00","0.00"
"09:59:57","69.9","53.4","55.8","29.76","340","3.1","7.2","0.00","0.00"
"10:04:59","70.1","53.5","55.6","29.76","349","1.7","6","0.00","0.00"
"10:09:57","70.4","52.7","53.6","29.76","339","5.4","10.8","0.00","0.00"
"10:14:58","70.4","52.6","53.4","29.76","327","2.6","6.9","0.00","0.00"
"10:19:58","70.5","52.6","53.2","29.76","275","3","7.2","0.00","0.00"
"10:24:58","70.8","53.6","54.5","29.76","2","2.2","6","0.00","0.00"
"10:29:59","71.2","53.5","53.4","29.76","330","2.3","4.8","0.00","0.00"
"10:34:59","71.6","53.4","52.7","29.76","326","2.6","6","0.00","0.00"
"10:39:59","71.8","52.8","51.2","29.76","321","4.8","8.4","0.00","0.00"
"10:44:56","72.1","53.2","51.4","29.76","276","2.7","6","0.00","0.00"
"10:49:56","72.3","52.9","50.5","29.76","288","2.2","5.8","0.00","0.00"
"10:54:56","72.7","54.1","52.1","29.76","238","3.4","8.4","0.00","0.00"
"10:59:56","73","52.8","49.2","29.76","253","4.2","8.4","0.00","0.00"
"11:04:58","72.8","52.4","48.9","29.76","311","3.3","8.4","0.00","0.00"
"11:09:56","73.4","53.6","49.9","29.76","284","3.6","8.4","0.00","0.00"
"11:14:57","73.7","52.8","48.1","29.76","224","3.3","7.2","0.00","0.00"
"11:19:57","73.3","53","49","29.76","254","3.1","8.4","0.00","0.00"
"11:24:57","73.6","53.7","49.9","29.76","251","2.7","7.2","0.00","0.00"
"11:29:57","73.8","52.9","48","29.76","301","3.8","8.4","0.00","0.00"
"11:34:57","73.4","52","47.2","29.76","338","4","8.4","0.00","0.00"
"11:39:58","73.9","52.2","46.7","29.76","341","2.9","7.2","0.00","0.00"
"11:44:58","74.3","53","47.5","29.76","214","3.6","10.8","0.00","0.00"
"11:49:58","75.4","54.1","47.5","29.76","240","3.3","7.2","0.00","0.00"
"11:54:58","74.8","52.4","45.7","29.76","198","3.7","7.2","0.00","0.00"
"11:59:59","74.7","53.2","47.3","29.76","146","2.4","5.8","0.00","0.00"
"12:04:57","74.7","53.7","48","29.76","318","2","6","0.00","0.00"
"12:09:59","74.9","53.4","47.1","29.76","212","3.6","6","0.00","0.00"
"12:14:56","75.5","54.9","48.9","29.76","206","3","6","0.00","0.00"
"12:19:56","75.6","54.4","47.8","29.76","250","2.5","10.8","0.00","0.00"
"12:24:56","76","55.6","49.4","29.76","345","2","8.4","0.00","0.00"
"12:29:57","76.1","55.6","49.1","29.76","341","4.9","8.4","0.00","0.00"
"12:34:57","76.2","55.9","49.5","29.76","353","1.4","4.8","0.00","0.00"
"12:39:56","76.1","55.3","48.6","29.76","326","2.5","7.2","0.00","0.00"
"12:44:59","75.7","53.5","46.1","29.76","214","2.8","6","0.00","0.00"
"12:49:56","76.6","56","48.9","29.75","197","1.6","3.6","0.00","0.00"
"12:54:56","77.1","54.5","45.6","29.75","211","3.3","10.8","0.00","0.00"
"12:59:56","76.4","53.7","45.5","29.75","330","2.7","13.2","0.00","0.00"
"13:04:58","76.5","54.6","46.7","29.74","216","1.3","3.6","0.00","0.00"
"13:09:56","77","55.2","46.9","29.74","296","2.9","7.2","0.00","0.00"
"13:14:57","77.2","54.8","46.1","29.74","336","3.4","7.2","0.00","0.00"
"13:19:58","77.6","56.6","48.5","29.74","331","2.3","7.2","0.00","0.00"
"13:24:58","77.8","55.2","45.8","29.74","224","3.2","8.4","0.00","0.00"
"13:29:59","77.8","54.9","45.4","29.74","197","4","10.8","0.00","0.00"
"13:34:59","78.1","54.8","44.7","29.74","202","3.5","7.2","0.00","0.00"
"13:39:56","78.1","54.3","43.9","29.74","199","3","7.2","0.00","0.00"
"13:44:57","78.7","56.9","47.1","29.74","98","1.5","4.8","0.00","0.00"
"13:49:58","78.3","54.6","44.1","29.74","240","1.6","4.8","0.00","0.00"
"13:54:58","78.2","53.2","41.9","29.74","275","2.6","6","0.00","0.00"
"13:59:58","77.8","52.6","41.6","29.74","314","2.7","7.2","0.00","0.00"
"14:04:56","78.2","54.4","43.8","29.74","284","2.5","7.2","0.00","0.00"
"14:09:58","78.6","53.5","42","29.74","300","3.5","8.4","0.00","0.00"
"14:14:59","78.3","54.7","44.3","29.74","263","3.3","8.4","0.00","0.00"
"14:19:59","78.6","54.7","43.7","29.74","290","2.8","6","0.00","0.00"
"14:24:57","78.9","53.8","41.9","29.74","324","3","8.4","0.00","0.00"
"14:29:58","79.1","54.7","43","29.74","230","2.2","7.2","0.00","0.00"
"14:34:59","79.8","53.7","40.5","29.74","289","3.9","10.8","0.00","0.00"
"14:39:57","79.5","53.7","41","29.74","330","2.5","7.2","0.00","0.00"
"14:44:58","79.4","53.7","41.2","29.74","325","1.5","5.8","0.00","0.00"
"14:49:56","79.9","54.7","41.8","29.74","240","3","6","0.00","0.00"
"14:54:57","80.1","54.7","41.7","29.74","286","3.4","12","0.00","0.00"
"14:59:58","79.7","53.8","40.8","29.74","205","4.5","12","0.00","0.00"
"15:04:57","79.6","52.3","38.7","29.74","271","4.5","13.2","0.00","0.00"
"15:09:56","79.5","52.3","38.9","29.74","310","3.5","12","0.00","0.00"
"15:14:59","80.2","53.7","40","29.74","355","2.9","6.9","0.00","0.00"
"15:19:57","80.6","52.9","38.3","29.74","329","3.5","9.6","0.00","0.00"
"15:24:58","80.1","53.2","39.4","29.74","320","2.9","5.8","0.00","0.00"
"15:29:59","80.3","52.5","38.1","29.74","334","3.7","10.8","0.00","0.00"
"15:34:56","80.7","52.2","37.3","29.73","211","3.6","7.2","0.00","0.00"
"15:39:58","80.5","52.1","37.4","29.73","259","3.4","10.8","0.00","0.00"
"15:44:56","80.9","52.3","37.3","29.73","251","4.8","13.2","0.00","0.00"
"15:49:57","81.1","52.9","37.8","29.73","202","2.3","8.1","0.00","0.00"
"15:54:58","81.3","52.3","36.7","29.73","250","3.2","7.2","0.00","0.00"
"15:59:59","81.2","51.8","36","29.73","203","2.3","6.9","0.00","0.00"
"16:04:59","81.4","52.2","36.4","29.73","207","2.3","4.8","0.00","0.00"
"16:09:58","81.2","51.6","35.9","29.73","289","1.8","6","0.00","0.00"
"16:14:56","81.3","52.1","36.4","29.73","309","2.3","8.4","0.00","0.00"
"16:19:57","81.4","52.3","36.6","29.73","329","3","8.4","0.00","0.00"
"16:24:58","81.4","52","36.2","29.73","207","4.2","8.4","0.00","0.00"
"16:29:59","81.3","51.9","36.2","29.73","194","4.4","10.8","0.00","0.00"
"16:34:57","81.3","52.2","36.6","29.72","190","3.6","7.2","0.00","0.00"
"16:39:59","81","51.6","36.1","29.72","190","3","7.2","0.00","0.00"
"16:44:56","81.2","53.5","38.5","29.72","196","1.6","4.8","0.00","0.00"
"16:49:57","80.9","52.4","37.4","29.72","256","2","6","0.00","0.00"
"16:54:58","80.9","52.5","37.5","29.72","354","1.6","6","0.00","0.00"
"16:59:59","80.9","52","36.8","29.72","334","3.7","7.2","0.00","0.00"
"17:04:59","80.7","52.1","37.2","29.72","343","2.6","6","0.00","0.00"
"17:09:58","80.9","51.9","36.7","29.72","340","4.2","13.2","0.00","0.00"
"17:14:56","80.6","51.5","36.5","29.72","295","2.3","6","0.00","0.00"
"17:19:57","80.4","51.8","37.2","29.72","302","2.7","7.2","0.00","0.00"
"17:24:58","80.5","52","37.2","29.72","349","3.4","6.9","0.00","0.00"
"17:29:59","80.5","52","37.3","29.72","341","2.6","7.2","0.00","0.00"
"17:34:56","80.5","51.7","36.8","29.71","357","3","6","0.00","0.00"
"17:39:59","80.2","51.4","36.8","29.71","359","2.7","6","0.00","0.00"
"17:44:56","79.8","51.5","37.4","29.71","331","3.4","7.2","0.00","0.00"
"17:49:57","79.6","52.6","39.2","29.71","328","1.4","3.6","0.00","0.00"
"17:54:59","79.6","52.3","38.7","29.71","327","1.2","3.6","0.00","0.00"
"17:59:56","79.7","53.1","39.8","29.71","332","2.4","4.8","0.00","0.00"
"18:04:59","79.6","51.8","38.2","29.71","343","2.6","7.2","0.00","0.00"
"18:09:58","79.3","51.1","37.3","29.71","355","1.2","3.6","0.00","0.00"
"18:14:56","79.4","51.9","38.5","29.71","355","0.9","3.5","0.00","0.00"
"18:19:58","79.3","52.8","39.8","29.71","303","0.9","3.6","0.00","0.00"
"18:24:59","79.1","52.9","40.3","29.71","302","0.8","3.6","0.00","0.00"
"18:29:56","78.9","52.8","40.4","29.71","302","0.4","3.5","0.00","0.00"
"18:34:58","78.8","52.5","40.1","29.71","122","1.9","4.8","0.00","0.00"
"18:39:59","78.8","51.7","39.1","29.71","340","1.7","4.6","0.00","0.00"
"18:44:56","78.7","52.9","40.8","29.71","340","0","2.3","0.00","0.00"
"18:49:58","78.7","53","41.1","29.71","340","0.1","2.4","0.00","0.00"
"18:54:56","78.5","52.2","40","29.71","340","0.5","2.4","0.00","0.00"
"18:59:57","78.4","52.8","41","29.72","340","0.5","2.4","0.00","0.00"
"19:04:59","78.2","53.1","41.9","29.72","340","0.1","2.3","0.00","0.00"
"19:09:57","77.9","53.4","42.8","29.72","340","0","0","0.00","0.00"
"19:14:58","77.4","54.8","45.7","29.72","340","0.3","1.2","0.00","0.00"
"19:19:58","76.6","54.5","46.4","29.72","340","0","1.2","0.00","0.00"
"19:24:59","75.9","54.8","48","29.72","340","0","0","0.00","0.00"
"19:29:59","75.1","54.3","48.5","29.72","340","0","0","0.00","0.00"
"19:34:59","74.5","54","48.7","29.72","340","0","0","0.00","0.00"
"19:39:59","74","54.2","50","29.72","340","0","0","0.00","0.00"
"19:44:59","73.6","53.9","50.2","29.72","340","0","0","0.00","0.00"
"19:49:57","73.3","54.3","51.3","29.72","340","0","0","0.00","0.00"
"19:54:57","72.9","54.3","52.2","29.72","340","0","0","0.00","0.00"
"19:59:57","72.4","54.7","53.6","29.73","340","0","0","0.00","0.00"
"20:04:59","72.1","55.2","55.4","29.73","340","0","0","0.00","0.00"
"20:09:57","71.7","55","55.5","29.73","340","0","0","0.00","0.00"
"20:14:59","71.5","55.2","56.5","29.73","340","0","0","0.00","0.00"
"20:19:56","71.2","55.7","58","29.73","340","0","0","0.00","0.00"
"20:24:56","70.9","55.1","57.3","29.73","340","0","0","0.00","0.00"
"20:29:57","70.5","55.4","58.8","29.73","340","0","0","0.00","0.00"
"20:34:57","70.3","55.7","60","29.73","340","0","0","0.00","0.00"
"20:39:58","69.8","54.9","59.2","29.73","340","0","1.2","0.00","0.00"
"20:44:59","69.2","55.4","61.4","29.73","340","0","1.2","0.00","0.00"
"20:49:56","68.8","55.5","62.6","29.73","255","0","1.2","0.00","0.00"
"20:54:56","68.5","55.8","64","29.73","255","0","0","0.00","0.00"
"20:59:57","68.2","55.6","64.2","29.73","255","0","0","0.00","0.00"
"21:04:59","67.8","55.6","65.1","29.73","255","0","1.2","0.00","0.00"
"21:09:57","67.3","55.7","66.5","29.73","255","0.1","1.2","0.00","0.00"
"21:14:58","66.9","55.9","67.8","29.73","255","0.4","1.2","0.00","0.00"
"21:19:59","66.7","56.1","68.9","29.73","255","0","0","0.00","0.00"
"21:24:59","66.2","55.3","68","29.73","255","0","0","0.00","0.00"
"21:29:56","65.7","55.3","69.3","29.74","255","0","0","0.00","0.00"
"21:34:56","65.4","55.6","70.7","29.74","255","0.4","1.2","0.00","0.00"
"21:39:57","65.1","55.5","71","29.74","255","0","1.2","0.00","0.00"
"21:44:58","64.9","55.7","72","29.75","255","0.4","1.2","0.00","0.00"
"21:49:59","64.8","55.7","72.3","29.75","255","0","0","0.00","0.00"
"21:54:59","64.4","55.4","72.5","29.75","255","0","1.2","0.00","0.00"
"21:59:59","64.1","55.3","73","29.76","255","0.5","1.2","0.00","0.00"
"22:04:58","63.8","55","73","29.76","255","0","0","0.00","0.00"
"22:09:56","63.5","54.9","73.5","29.76","255","0","0","0.00","0.00"
"22:14:57","63.3","54.9","74","29.76","255","0","0","0.00","0.00"
"22:19:58","63","54.9","74.8","29.76","255","0.2","1.2","0.00","0.00"
"22:24:58","62.9","54.9","75","29.76","255","0","0","0.00","0.00"
"22:29:59","62.7","54.7","75","29.76","255","0","0","0.00","0.00"
"22:34:59","62.4","54.5","75.2","29.76","255","0","0","0.00","0.00"
"22:39:56","62.1","54.4","76","29.76","255","0","0","0.00","0.00"
"22:44:57","61.8","54.2","76.2","29.76","255","0","1.2","0.00","0.00"
"22:49:58","61.7","54.4","77","29.76","255","1.2","2.4","0.00","0.00"
"22:54:58","61.7","54.7","77.8","29.76","255","0.1","2.3","0.00","0.00"
"22:59:59","61.6","54.5","77.4","29.77","255","0","0","0.00","0.00"
"23:04:57","61.4","54.1","77","29.77","255","0","0","0.00","0.00"
"23:09:56","61.2","54.1","77.7","29.77","255","0","0","0.00","0.00"
"23:14:57","61","54.2","78.5","29.77","255","0","0","0.00","0.00"
"23:19:58","60.8","54.2","79","29.77","255","0","1.2","0.00","0.00"
"23:24:58","60.7","54.2","79.1","29.77","255","0","0","0.00","0.00"
"23:29:59","60.6","54.4","80","29.77","255","0.1","1.2","0.00","0.00"
"23:34:59","60.5","54.3","80","29.76","255","0","1.2","0.00","0.00"
"23:39:56","60.3","54.3","80.6","29.76","255","0","0","0.00","0.00"
"23:44:57","60.1","54.3","81","29.76","255","0","0","0.00","0.00"
